Regional Weather Roundup
Issued by NWS

Home | Current Version | Previous Version | Text Only | Print | Product List | Glossary On
Versions: 1 2 3 4 5 6 7 8 9 10 11 12 13 14 15 16 17 18 19 20 21 22 23 24 25 26 27 28 29 30 31 32 33 34 35 36 37 38 39 40 41 42 43 44 45 46 47 48 49 50
000
ASUS43 KMPX 311701
RWRMN
WEATHER ROUNDUP FOR MINNESOTA
NATIONAL WEATHER SERVICE TWIN CITIES/CHANHASSEN MN
1200 PM CDT TUE MAY 31 2016


NOTE: "FAIR" INDICATES FEW OR NO CLOUDS BELOW 12,000 FEET WITH NO
SIGNIFICANT WEATHER AND/OR OBSTRUCTIONS TO VISIBILITY. N/A MEANS
CURRENT SKY AND/OR WEATHER CONDITIONS ARE NOT AVAILABLE.

MNZ060>063-068>070-311800-
   Twin Cities Metro

CITY           SKY/WX    TMP DP  RH WIND       PRES   REMARKS
TWIN CITIES    LGT RAIN  69  61  75 SW10      29.87S
ST PAUL        CLOUDY    68  63  84 S9        29.88R
CRYSTAL        LGT RAIN  68  61  78 S7        29.86R
BLAINE         CLOUDY    68  64  88 S7        29.87R
EDEN PRAIRIE   CLOUDY    70  62  76 S9        29.86S
SOUTH ST PAUL  CLOUDY    68  63  84 S8        29.88S
LAKE ELMO      CLOUDY    66  63  88 S9        29.90R
$$
MNZ001>005-007-008-013>017-022>024-027-028-311800-
   Northwest Minnesota

CITY           SKY/WX    TMP DP  RH WIND       PRES   REMARKS
BEMIDJI        CLOUDY    54  53  96 SE13      29.79R
HALLOCK        CLOUDY    63  61  94 SE13G18   29.67F
ROSEAU         CLOUDY    54  48  82 SE17G23   29.76R
WARROAD        LGT RAIN  52  46  82 SE23G29   29.78S
THIEF RVR FALL CLOUDY    61  57  88 S8        29.74R
CROOKSTON      PTSUNNY   66  59  77 SW12      29.72R
FOSSTON        CLOUDY    63  61  94 SW16      29.76R
DETROIT LAKES  PTSUNNY   64  55  72 SW13      29.79R
MOORHEAD       MOSUNNY   64  54  68 SW16G22   29.77R
PARK RAPIDS    CLOUDY    58  56  93 SE12      29.79R
MAHNOMEN       CLOUDY    62  57  82 SW15      29.75S
$$
MNZ006-009>011-018-025>026-311800-
   North Central Minnesota

CITY           SKY/WX    TMP DP  RH WIND       PRES   REMARKS
BAUDETTE       CLOUDY    50  47  89 SE18G31   29.81F
FLAG ISLAND    RAIN      52  48  87 E21G31    29.78F
INTL FALLS     RAIN      50  47  89 SE13      29.88S FOG
WASKISH        LGT RAIN  52  50  93 E16G24    29.81F
BIG FORK       RAIN      52  48  87 SE9       29.85F
LONGVILLE      CLOUDY    52  50  93 SE6       29.83R
GRAND RAPIDS   LGT RAIN  49  48  97 NE9       29.87F
CRANE LAKE     DRIZZLE   48  46  93 CALM      29.95S
ORR            LGT RAIN  48  45  87 SE5       29.87F
COOK           RAIN      50  46  87 E6        29.90F
WALKER         DRIZZLE   53  51  95 SE8       29.81R
$$
MNZ012-019>021-037-311800-
   Northeast Minnesota

CITY           SKY/WX    TMP DP  RH WIND       PRES   REMARKS
DULUTH         CLOUDY    46  43  89 E17G28    29.92F
ELY            CLOUDY    52  39  62 E16G29    29.93F
HIBBING        RAIN      47  45  93 SE10G21   29.89F FOG
EVELETH        RAIN      46  45  93 E8        29.92S
DULUTH HARBOR  DRIZZLE   43  41  93 NE26G32   29.96F
TWO HARBORS    LGT RAIN  48  43  81 NE18G25   29.94F
SILVER BAY     CLOUDY    45  41  87 NE13G22   29.97F
GRAND MARAIS     N/A    N/A N/A N/A NE16G25   30.06F
G MARAIS ARPRT CLOUDY    48  36  61 E16G22    30.06F
$$
MNZ029>031-032-039>041-046>048-054>057-064-311800-
   West Central Minnesota

CITY           SKY/WX    TMP DP  RH WIND       PRES   REMARKS
FERGUS FALLS   PTSUNNY   64  54  68 W17       29.78R
WHEATON        SUNNY     66  54  63 SW17G23   29.83S
MORRIS         SUNNY     68  54  60 W17       29.82S
ALEXANDRIA     CLOUDY    67  56  67 W13       29.84R
ELBOW LAKE     PTSUNNY   64  53  67 SW15G23   29.83R
WADENA         CLOUDY    63  57  82 SW14      29.80R
GLENWOOD       MOSUNNY   66  55  68 SW17      29.84S
APPLETON       SUNNY     70  48  46 W14       29.84S
BENSON         MOSUNNY   68  54  60 W12G18    29.84S
ORTONVILLE     SUNNY     66  48  52 W13G20    29.84S
MADISON        SUNNY     68  52  56 W13G21    29.86R
WILLMAR        PTSUNNY   66  59  77 W13       29.87R
$$
MNZ033>034-036-042>043-049>051-058-059-311800-
   Central Minnesota

CITY           SKY/WX    TMP DP  RH WIND       PRES   REMARKS
ST CLOUD       CLOUDY    67  61  81 SW13      29.84R
SAUK CENTRE    CLOUDY    65  57  75 SW16G22   29.84R
PAYNESVILLE    CLOUDY    65  59  80 SW13      29.86R
AITKIN         MIX PCPN  54  48  82 E7        29.84R
PINE RIVER     LGT RAIN  52  52 100 SE9       29.86R
BRAINERD       CLOUDY    55  54  96 SE6       29.83S
STAPLES        CLOUDY    63  61  94 SW9       29.80S
LONG PRAIRIE   PTSUNNY   64  59  82 S13       29.83S
LITTLE FALLS   CLOUDY    63  57  82 SW8       29.84R
LITCHFIELD     CLOUDY    64  61  88 W7        29.87R
BUFFALO        PTSUNNY   68  60  75 S9        29.86S
MAPLE LAKE     CLOUDY    68  64  84 S3        29.86S
HUTCHINSON     MOSUNNY   66  60  80 SW7       29.88R
$$
MNZ037-044-045-052-053-311800-
   East Central Minnesota

CITY           SKY/WX    TMP DP  RH WIND       PRES   REMARKS
PRINCETON      CLOUDY    68  64  88 S8        29.85S
MORA           CLOUDY    55  54  94 E3        29.88S
CAMBRIDGE      CLOUDY    68  59  73 S9        29.85R
RUSH CITY      CLOUDY    65  62  90 S10G16    29.87S
MOOSE LAKE     LGT RAIN  45  43  93 NE9       29.89S
HINCKLEY       RAIN      55  55 100 NE3       29.88S
CLOQUET        DRIZZLE   45  43  93 E13       29.91F
MCGREGOR       CLOUDY    48  46  93 SE9G17    29.87S
$$
MNZ071>073-080-081-089-090-097-098-311800-
   Southwest Minnesota

CITY           SKY/WX    TMP DP  RH WIND       PRES   REMARKS
MONTEVIDEO     SUNNY     70  55  60 NW9       29.87S
GRANITE FALLS  MOSUNNY   69  56  63 W18       29.88S
CANBY          SUNNY     70  53  55 SW15      29.89R
MARSHALL       MOSUNNY   67  52  58 W13       29.88R
REDWOOD FALLS  CLOUDY    67  55  65 W14       29.87R
OLIVIA         CLOUDY    66  55  68 W12G17    29.86S
PIPESTONE      SUNNY     64  52  63 NW16      29.92R
WINDOM         CLOUDY    64  55  72 W5        29.92S
WORTHINGTON    CLOUDY    64  55  72 W13       29.94R
JACKSON        CLOUDY    63  55  77 W8        29.93R
TRACY          CLOUDY    67  56  67 W8        29.89S
SLAYTON        MOSUNNY   66  52  61 W18G24    29.92R
$$
MNZ065>067-074>077-082>085-091>093-311800-
   South Central Minnesota

CITY           SKY/WX    TMP DP  RH WIND       PRES   REMARKS
MANKATO        CLOUDY    66  61  82 W10       29.89S
NEW ULM        LGT RAIN  64  61  88 W14G26    29.90R
ST JAMES       RAIN      59  55  88 SW7       29.92R
FAIRMONT       CLOUDY    64  59  82 W9        29.91R
GLENCOE        CLOUDY    69  64  83 S9        29.86S
FARIBAULT      CLOUDY    66  64  94 S8        29.90R
OWATONNA       CLOUDY    70  64  83 SW9       29.89F
WASECA         LGT RAIN  66  63  88 SW7       29.91R
ALBERT LEA     CLOUDY    72  63  73 SW6       29.89S
$$
MNZ078>079-086>088-094>096-311800-
   Southeast Minnesota

CITY           SKY/WX    TMP DP  RH WIND       PRES   REMARKS
ROCHESTER      CLOUDY    74  63  68 S15       29.89F
RED WING       CLOUDY    72  63  73 CALM      29.87S
STANTON        CLOUDY    70  63  80 SW10      29.88S
DODGE CENTER   CLOUDY    75  61  60 SW12      29.89F
WINONA         CLOUDY    79  61  53 S3        29.89F
AUSTIN         MOSUNNY   73  64  73 S13       29.89S
PRESTON        MOSUNNY   74  61  63 SW10      29.92S
$$
ABBREVIATIONS USED IN REMARKS
   TC - TEMPERATURES IN CELSIUS
  WCI - WIND CHILL INDEX
   HX - HEAT INDEX
  VSB - VISIBILITY
$$




USA.gov is the U.S. government's official web portal to all federal, state and local government web resources and services.